This demonstration page uses our WeatherBlox Daily Observations layout. Learn more.

Left ArrowRight Arrow

41.55636, -103.73856

Hourly Observations for August 12, 2022

Temp ( °F °C ) Dew Point ( °F °C ) Humidity (%) Winds ( mph kmh ) Pressure ( in mb ) Visibility ( mi km ) Precip ( " mm )
12:58 am 00:58 Clear 74 23.4 44 6.6 34 34 SSW 14 22 29.84 1011 10 16 0.00 0.00
1:58 am 01:58 Clear 75 24.1 42 5.4 30 30 SSW 23 37 29.81 1010 10 16 0.00 0.00
2:58 am 02:58 Clear 71 21.8 41 5.2 34 34 WSW 6 9 29.91 1013 10 16 0.00 0.00
3:58 am 03:58 Clear 67 19.2 43 6 42 42 SW 3 6 29.95 1014 10 16 0.00 0.00
4:58 am 04:58 Clear 63 17.3 44 6.8 50 50 WNW 6 9 29.98 1015 10 16 0.00 0.00
5:58 am 05:58 Clear 60 15.8 45 7 56 56 W 6 9 30.01 1016 10 16 0.00 0.00
6:58 am 06:58 Sunny 62 16.7 48 8.9 60 60 SW 3 6 30.00 1016 10 16 0.00 0.00
7:58 am 07:58 Sunny 72 22.3 48 9.1 43 43 Calm 29.99 1016 10 16 0.00 0.00
8:58 am 08:58 Sunny 78 25.7 48 9.1 35 35 Calm 30.00 1016 10 16 0.00 0.00
9:58 am 09:58 Sunny 81 27.3 49 9.6 33 33 NNE 6 9 30.00 1016 10 16 0.00 0.00
10:58 am 10:58 Sunny 84 28.9 49 9.6 30 30 N 6 9 29.99 1016 10 16 0.00 0.00
12:58 pm 12:58 Sunny 88 31.2 48 8.8 25 25 NNE 6 9 29.98 1015 10 16 0.00 0.00
1:58 pm 13:58 Sunny 91 33 46 7.7 21 21 N 12 19 29.94 1014 10 16 0.00 0.00
2:58 pm 14:58 Sunny 93 34 49 9.2 22 22 NE 7 11 29.93 1014 10 16 0.00 0.00
3:58 pm 15:58 Sunny 94 34.7 47 8.4 20 20 NE 9 15 29.91 1013 10 16 0.00 0.00
4:58 pm 16:58 Sunny 94 34.2 46 8 20 20 NE 8 13 29.90 1013 10 16 0.00 0.00
5:58 pm 17:58 Sunny 92 33.5 47 8.1 21 21 ENE 9 15 29.91 1013 10 16 0.00 0.00
6:58 pm 18:58 Sunny 91 32.6 47 8.1 22 22 E 9 15 29.91 1013 10 16 0.00 0.00
8:58 pm 20:58 Clear 79 25.9 49 9.2 35 35 ESE 9 15 29.91 1013 10 16 0.00 0.00
9:58 pm 21:58 Clear 79 25.9 49 9.7 36 36 SE 13 20 29.93 1013 10 16 0.00 0.00
10:58 pm 22:58 Partly Cloudy 77 24.8 49 9.5 38 38 SE 14 22 29.93 1014 10 16 0.00 0.00
11:58 pm 23:58 Cloudy 76 24.6 50 10.1 40 40 ESE 12 19 29.96 1014 10 16 0.00 0.00

Powered by AerisWeather